Location: Newark
(54.3386°S, 169.8415°W)
Time: 22:35:44
(UTC+00:00)

Transit 2A Rocket - Pass Details

Date: 30 October 2019
Orbit: 594 x 909 km, 66.7° (Epoch: 16 November)

Event Time Altitude Azimuth Distance (km) Brightness Sun altitude
Rises 07:32:03 0° 232° (SW) 3,498 11.0 -8.6°
Reaches altitude 10° 07:34:50 10° 222° (SW) 2,588 9.3 -8.9°
Maximum altitude 07:40:12 31° 160° (SSE) 1,552 6.8 -9.6°
Drops below altitude 10° 07:45:37 10° 98° (E) 2,616 7.4 -10.1°
Enters shadow 07:47:30 - 90° (E) 3,220 7.8 -10.3°
Sets 07:48:27 0° 88° (E) 3,542 - -10.5°
